Iowa City, IA

12:57 PM CST on February 18, 2018 (GMT -0600)
Iowa City Municipal

Weather History for KIOW - October, 2012

Change the Weather History Date:

Friday, October 5, 2012

  Actual Average Record
Temperature  
Mean Temperature 39 °F 56 °F  
Max Temperature 47 °F 68 °F 88 °F (1963)
Min Temperature 30 °F 44 °F 29 °F (1950)
Degree Days  
Heating Degree Days 26 10  
Month to date heating degree days 53 45  
Since 1 July heating degree days 192 157  
Cooling Degree Days 0 1  
Month to date cooling degree days 0 5  
Year to date cooling degree days 1257 907  
Moisture  
Dew Point 26 °F    
Average Humidity 57    
Maximum Humidity 76    
Minimum Humidity 38    
Precipitation  
Precipitation 0.00 in 0.08 in 1.87 in (1954)
Month to date precipitation 0.02 0.42  
Year to date precipitation 19.81 29.96  
Sea Level Pressure  
Sea Level Pressure 30.23 in    
Wind  
Wind Speed 9 mph (WNW)    
Max Wind Speed 18 mph    
Max Gust Speed 23 mph    
Visibility 10 miles    
Events      
T = Trace of Precipitation, MM = Missing Value Source: NWS Daily Summary

Daily Weather History Graph

Daily Weather History Graph

Search for Another Location

Airport or City:

Trip Planner

Search our weather history database for the weather conditions in past years. The results will help you decide how hot, cold, wet, or windy it might be!

Date:

Astronomy

Oct. 05, 2012 Rise Set
Actual Time 7:07 AM CDT 6:40 PM CDT
Civil Twilight 6:40 AM CDT 7:08 PM CDT
Nautical Twilight 6:07 AM CDT 7:40 PM CDT
Astronomical Twilight 5:35 AM CDT 8:12 PM CDT
Moon 10:00 PM CDT (10/5) 12:19 PM CDT (10/5)
Length of Visible Light 12h 27m
Length of Day
11h 32m
Waning Gibbous, 74% of the Moon is Illuminated
Oct 5
Waning Gibbous
Oct 8
Last Quarter
Oct 15
New
Oct 21
First Quarter
Oct 29
Full

Hourly Weather History & Observations

Time (CDT) Temp. Windchill Dew Point Humidity Pressure Visibility Wind Dir Wind Speed Gust Speed Precip Events Conditions
12:52 AM 45.0 °F 41.2 °F 33.1 °F 63% 30.26 in 10.0 mi West 6.9 mph - N/A   Clear
1:52 AM 46.0 °F 41.9 °F 30.9 °F 56% 30.24 in 10.0 mi NNW 8.1 mph - N/A   Mostly Cloudy
3:52 AM 41.0 °F 37.1 °F 30.0 °F 65% 30.26 in 10.0 mi West 5.8 mph - N/A   Clear
4:52 AM 37.9 °F 34.4 °F 30.0 °F 73% 30.26 in 10.0 mi West 4.6 mph - N/A   Clear
5:52 AM 37.9 °F 32.7 °F 30.0 °F 73% 30.27 in 10.0 mi West 6.9 mph - N/A   Clear
6:52 AM 37.0 °F 29.8 °F 28.9 °F 73% 30.27 in 10.0 mi WNW 10.4 mph - N/A   Clear
7:52 AM 39.0 °F 32.3 °F 30.0 °F 70% 30.24 in 10.0 mi WNW 10.4 mph - N/A   Clear
8:52 AM 39.9 °F 32.9 °F 30.0 °F 68% 30.26 in 10.0 mi NW 11.5 mph - N/A   Mostly Cloudy
10:52 AM 45.0 °F 38.5 °F 28.0 °F 52% 30.25 in 10.0 mi WNW 13.8 mph - N/A   Clear
12:52 PM 45.0 °F 38.2 °F 24.1 °F 44% 30.23 in 10.0 mi NW 15.0 mph - N/A   Overcast
2:52 PM 45.0 °F 38.5 °F 24.1 °F 44% 30.22 in 10.0 mi WNW 13.8 mph - N/A   Overcast
3:52 PM 46.0 °F 40.6 °F 25.0 °F 44% 30.22 in 10.0 mi West 11.5 mph - N/A   Overcast
4:52 PM 46.9 °F - 24.1 °F 41% 30.19 in 10.0 mi WNW 11.5 mph - N/A   Scattered Clouds
5:52 PM 46.9 °F - 23.0 °F 39% 30.18 in 10.0 mi WNW 12.7 mph - N/A   Partly Cloudy
6:52 PM 43.0 °F 37.7 °F 24.1 °F 47% 30.18 in 10.0 mi West 9.2 mph - N/A   Clear
7:52 PM 37.9 °F 33.5 °F 25.0 °F 60% 30.19 in 10.0 mi West 5.8 mph - N/A   Clear
8:52 PM 37.0 °F 32.4 °F 23.0 °F 57% 30.20 in 10.0 mi West 5.8 mph - N/A   Clear
9:52 PM 37.0 °F 30.4 °F 21.9 °F 54% 30.21 in 10.0 mi West 9.2 mph - N/A   Clear
10:52 PM 35.1 °F 29.3 °F 21.0 °F 57% 30.22 in 10.0 mi West 6.9 mph - N/A   Clear
11:52 PM 32.0 °F 26.4 °F 21.9 °F 66% 30.22 in 10.0 mi West 5.8 mph - N/A   Clear